| time (UTC) | temp C | wind direction | speed KPH | gust KPH | rain 1hr cm | rain 24hr cm | rain mn cm | humidity % | barometer mb |
| 20260505055024 | 16 | 127 | 3.2 | 9.7 | 0.00 | 0.00 | 0.00 | 74 | 1054.6 |
| 20260505054521 | 16 | 55 | 3.2 | 22.5 | 0.00 | 0.00 | 0.00 | 73 | 1054.7 |
| 20260505054019 | 16 | 70 | 4.8 | 4.8 | 0.00 | 0.00 | 0.00 | 72 | 1054.7 |
| 20260505053516 | 16 | 193 | 1.6 | 9.7 | 0.00 | 0.00 | 0.00 | 71 | 1054.4 |
| 20260505053013 | 17 | 97 | 6.4 | 9.7 | 0.00 | 0.00 | 0.00 | 69 | 1055.2 |
| 20260505052510 | 17 | 267 | 8.0 | 12.9 | 0.00 | 0.00 | 0.00 | 67 | 1055.2 |
| 20260505052007 | 17 | 101 | 1.6 | 4.8 | 0.00 | 0.00 | 0.00 | 64 | 1054.8 |
| 20260505051504 | 18 | 123 | 3.2 | 4.8 | 0.00 | 0.00 | 0.00 | 63 | 1055.0 |
| 20260505051002 | 18 | 56 | 4.8 | 12.9 | 0.00 | 0.00 | 0.00 | 62 | 1054.9 |
| 20260505050500 | 18 | 71 | 3.2 | 6.4 | 0.00 | 0.00 | 0.00 | 61 | 1054.9 |
| 20260505041427 | 21 | 130 | 0.0 | 0.0 | 0.00 | 0.00 | 0.00 | 69 | 1053.8 |
| 20260505040925 | 21 | 130 | 0.0 | 0.0 | 0.00 | 0.00 | 0.00 | 68 | 1053.9 |
| 20260505040422 | 21 | 130 | 0.0 | 0.0 | 0.00 | 0.00 | 0.00 | 68 | 1054.1 |
| 20260505035919 | 22 | 130 | 0.0 | 0.0 | 0.00 | 0.00 | 0.00 | 68 | 1053.7 |
| 20260505035415 | 22 | 130 | 0.0 | 1.6 | 0.00 | 0.00 | 0.00 | 67 | 1053.7 |
| 20260505034912 | 22 | 131 | 0.0 | 0.0 | 0.00 | 0.00 | 0.00 | 66 | 1053.7 |
| 20260505034409 | 22 | 134 | 0.0 | 1.6 | 0.00 | 0.00 | 0.00 | 65 | 1053.4 |
| 20260505033906 | 22 | 114 | 1.6 | 1.6 | 0.00 | 0.00 | 0.00 | 65 | 1053.6 |
| 20260505033402 | 22 | 131 | 1.6 | 3.2 | 0.00 | 0.00 | 0.00 | 64 | 1053.6 |
| 20260505032901 | 22 | 135 | 0.0 | 3.2 | 0.00 | 0.00 | 0.00 | 64 | 1053.8 |
| 20260505032357 | 22 | 133 | 1.6 | 1.6 | 0.00 | 0.00 | 0.00 | 63 | 1053.5 |
| 20260505031854 | 22 | 136 | 1.6 | 3.2 | 0.00 | 0.00 | 0.00 | 62 | 1053.7 |
| 20260505031351 | 23 | 132 | 0.0 | 1.6 | 0.00 | 0.00 | 0.00 | 62 | 1053.7 |
| 20260505030848 | 23 | 121 | 0.0 | 4.8 | 0.00 | 0.00 | 0.00 | 61 | 1053.8 |
| 20260505030344 | 23 | 119 | 1.6 | 1.6 | 0.00 | 0.00 | 0.00 | 61 | 1053.6 |
| 20260505025839 | 23 | 146 | 1.6 | 3.2 | 0.00 | 0.00 | 0.00 | 61 | 1053.4 |
| 20260505025337 | 23 | 137 | 1.6 | 3.2 | 0.00 | 0.00 | 0.00 | 61 | 1053.5 |
| 20260505024836 | 23 | 128 | 0.0 | 1.6 | 0.00 | 0.00 | 0.00 | 60 | 1053.6 |
| 20260505024333 | 23 | 131 | 1.6 | 3.2 | 0.00 | 0.00 | 0.00 | 59 | 1053.7 |
| 20260505023830 | 23 | 135 | 0.0 | 1.6 | 0.00 | 0.00 | 0.00 | 58 | 1053.9 |
| 20260505023327 | 23 | 165 | 3.2 | 3.2 | 0.00 | 0.00 | 0.00 | 58 | 1053.7 |
| 20260505022824 | 23 | 156 | 1.6 | 9.7 | 0.00 | 0.00 | 0.00 | 57 | 1053.6 |
| 20260505022321 | 23 | 152 | 3.2 | 3.2 | 0.00 | 0.00 | 0.00 | 57 | 1053.7 |
| 20260505021818 | 23 | 159 | 1.6 | 3.2 | 0.00 | 0.00 | 0.00 | 56 | 1053.4 |
| 20260505021315 | 23 | 177 | 3.2 | 4.8 | 0.00 | 0.00 | 0.00 | 56 | 1053.6 |
| 20260505020810 | 23 | 134 | 1.6 | 3.2 | 0.00 | 0.00 | 0.00 | 55 | 1053.1 |
| 20260505020306 | 23 | 142 | 1.6 | 4.8 | 0.00 | 0.00 | 0.00 | 55 | 1053.2 |
| 20260505015803 | 23 | 135 | 0.0 | 3.2 | 0.00 | 0.00 | 0.00 | 55 | 1053.2 |
| 20260505015300 | 23 | 133 | 1.6 | 3.2 | 0.00 | 0.00 | 0.00 | 55 | 1053.3 |
| 20260505014758 | 23 | 154 | 1.6 | 3.2 | 0.00 | 0.00 | 0.00 | 54 | 1053.1 |
| 20260505014255 | 24 | 132 | 0.0 | 1.6 | 0.00 | 0.00 | 0.00 | 54 | 1052.9 |
| 20260505013751 | 24 | 137 | 0.0 | 1.6 | 0.00 | 0.00 | 0.00 | 53 | 1052.8 |
| 20260505013248 | 24 | 134 | 0.0 | 0.0 | 0.00 | 0.00 | 0.00 | 52 | 1052.7 |
| 20260505012747 | 25 | 129 | 1.6 | 3.2 | 0.00 | 0.00 | 0.00 | 51 | 1052.5 |
| 20260505012244 | 25 | 136 | 1.6 | 1.6 | 0.00 | 0.00 | 0.00 | 51 | 1052.7 |
| 20260505011739 | 25 | 134 | 0.0 | 1.6 | 0.00 | 0.00 | 0.00 | 51 | 1052.4 |
| 20260505011237 | 25 | 131 | 0.0 | 1.6 | 0.00 | 0.00 | 0.00 | 51 | 1052.4 |
| 20260505010732 | 25 | 133 | 0.0 | 1.6 | 0.00 | 0.00 | 0.00 | 50 | 1052.4 |
| 20260505010228 | 25 | 136 | 1.6 | 3.2 | 0.00 | 0.00 | 0.00 | 49 | 1052.4 |
| 20260505005725 | 25 | 142 | 1.6 | 3.2 | 0.00 | 0.00 | 0.00 | 48 | 1052.3 |
| 20260505005222 | 25 | 131 | 0.0 | 1.6 | 0.00 | 0.00 | 0.00 | 48 | 1052.2 |
| 20260505004719 | 25 | 150 | 1.6 | 1.6 | 0.00 | 0.00 | 0.00 | 47 | 1052.3 |
| 20260505004216 | 26 | 136 | 1.6 | 4.8 | 0.00 | 0.00 | 0.00 | 47 | 1052.1 |
| 20260505003713 | 26 | 149 | 1.6 | 3.2 | 0.00 | 0.00 | 0.00 | 46 | 1051.8 |
| 20260505003211 | 26 | 133 | 1.6 | 1.6 | 0.00 | 0.00 | 0.00 | 46 | 1051.9 |
| 20260505002707 | 26 | 192 | 3.2 | 6.4 | 0.00 | 0.00 | 0.00 | 46 | 1052.1 |
| 20260505002205 | 26 | 134 | 3.2 | 9.7 | 0.00 | 0.00 | 0.00 | 46 | 1052.3 |
| 20260505001701 | 26 | 132 | 1.6 | 9.7 | 0.00 | 0.00 | 0.00 | 45 | 1052.2 |
| 20260505001159 | 26 | 145 | 1.6 | 9.7 | 0.00 | 0.00 | 0.00 | 45 | 1052.3 |
| 20260505000656 | 26 | 112 | 1.6 | 9.7 | 0.00 | 0.00 | 0.00 | 45 | 1052.7 |
| 20260505000154 | 26 | 159 | 3.2 | 4.8 | 0.00 | 0.00 | 0.00 | 45 | 1052.6 |
| 20260504235650 | 27 | 197 | 6.4 | 12.9 | 0.00 | 0.00 | 0.00 | 44 | 1052.5 |
| 20260504235146 | 27 | 186 | 4.8 | 9.7 | 0.00 | 0.00 | 0.00 | 44 | 1052.4 |
| 20260504234644 | 27 | 200 | 6.4 | 6.4 | 0.00 | 0.00 | 0.00 | 43 | 1052.4 |
| 20260504234141 | 27 | 132 | 3.2 | 9.7 | 0.00 | 0.00 | 0.00 | 43 | 1052.5 |
| 20260504233637 | 27 | 144 | 3.2 | 3.2 | 0.00 | 0.00 | 0.00 | 43 | 1052.3 |
| 20260504233133 | 27 | 154 | 3.2 | 11.3 | 0.00 | 0.00 | 0.00 | 43 | 1052.5 |
| 20260504232631 | 27 | 220 | 6.4 | 12.9 | 0.00 | 0.00 | 0.00 | 42 | 1052.5 |
| 20260504232127 | 28 | 189 | 6.4 | 6.4 | 0.00 | 0.00 | 0.00 | 42 | 1052.4 |
| 20260504231624 | 28 | 199 | 6.4 | 12.9 | 0.00 | 0.00 | 0.00 | 41 | 1052.5 |
| 20260504231120 | 28 | 146 | 3.2 | 4.8 | 0.00 | 0.00 | 0.00 | 41 | 1052.2 |
| 20260504230616 | 28 | 200 | 4.8 | 9.7 | 0.00 | 0.00 | 0.00 | 41 | 1052.6 |
| 20260504230116 | 28 | 146 | 3.2 | 9.7 | 0.00 | 0.00 | 0.00 | 41 | 1052.4 |
| 20260504225613 | 28 | 206 | 4.8 | 4.8 | 0.00 | 0.00 | 0.00 | 40 | 1052.4 |
| 20260504225109 | 29 | 181 | 4.8 | 6.4 | 0.00 | 0.00 | 0.00 | 39 | 1052.5 |
| 20260504224606 | 29 | 187 | 3.2 | 9.7 | 0.00 | 0.00 | 0.00 | 39 | 1052.4 |
| 20260504224103 | 30 | 132 | 3.2 | 6.4 | 0.00 | 0.00 | 0.00 | 38 | 1052.5 |
| 20260504223600 | 30 | 202 | 3.2 | 11.3 | 0.00 | 0.00 | 0.00 | 36 | 1052.5 |
| 20260504223055 | 30 | 176 | 3.2 | 12.9 | 0.00 | 0.00 | 0.00 | 36 | 1052.2 |
| 20260504222553 | 30 | 166 | 3.2 | 9.7 | 0.00 | 0.00 | 0.00 | 36 | 1052.3 |
| 20260504222050 | 30 | 162 | 3.2 | 6.4 | 0.00 | 0.00 | 0.00 | 33 | 1052.1 |
| 20260504221547 | 31 | 152 | 4.8 | 6.4 | 0.00 | 0.00 | 0.00 | 33 | 1052.2 |
| 20260504221044 | 30 | 145 | 1.6 | 3.2 | 0.00 | 0.00 | 0.00 | 33 | 1052.4 |
| 20260504220540 | 30 | 124 | 0.0 | 3.2 | 0.00 | 0.00 | 0.00 | 35 | 1052.2 |
| 20260504220037 | 31 | 144 | 1.6 | 3.2 | 0.00 | 0.00 | 0.00 | 34 | 1052.3 |
| 20260504215534 | 31 | 178 | 6.4 | 9.7 | 0.00 | 0.00 | 0.00 | 33 | 1052.4 |
| 20260504215032 | 31 | 215 | 3.2 | 4.8 | 0.00 | 0.00 | 0.00 | 33 | 1052.4 |
| 20260504214527 | 30 | 166 | 1.6 | 6.4 | 0.00 | 0.00 | 0.00 | 34 | 1052.5 |
| 20260504214024 | 31 | 203 | 3.2 | 9.7 | 0.00 | 0.00 | 0.00 | 33 | 1052.5 |
| 20260504213521 | 31 | 118 | 1.6 | 3.2 | 0.00 | 0.00 | 0.00 | 33 | 1052.7 |
| 20260504213018 | 30 | 143 | 0.0 | 6.4 | 0.00 | 0.00 | 0.00 | 33 | 1052.5 |
| 20260504212513 | 30 | 134 | 3.2 | 12.9 | 0.00 | 0.00 | 0.00 | 33 | 1052.8 |
| 20260504212011 | 30 | 180 | 3.2 | 9.7 | 0.00 | 0.00 | 0.00 | 32 | 1053.0 |
| 20260504211508 | 30 | 168 | 3.2 | 4.8 | 0.00 | 0.00 | 0.00 | 33 | 1053.0 |
| 20260504211005 | 30 | 123 | 1.6 | 4.8 | 0.00 | 0.00 | 0.00 | 33 | 1053.1 |
| 20260504210502 | 30 | 119 | 3.2 | 3.2 | 0.00 | 0.00 | 0.00 | 31 | 1053.1 |
| 20260504205958 | 30 | 142 | 1.6 | 4.8 | 0.00 | 0.00 | 0.00 | 31 | 1053.2 |
| 20260504205456 | 30 | 253 | 3.2 | 4.8 | 0.00 | 0.00 | 0.00 | 31 | 1053.3 |
| 20260504204954 | 30 | 137 | 0.0 | 3.2 | 0.00 | 0.00 | 0.00 | 34 | 1053.4 |
| 20260504204452 | 30 | 151 | 1.6 | 3.2 | 0.00 | 0.00 | 0.00 | 32 | 1053.3 |
| 20260504203951 | 29 | 141 | 0.0 | 6.4 | 0.00 | 0.00 | 0.00 | 33 | 1053.5 |
| 20260504203448 | 30 | 159 | 3.2 | 4.8 | 0.00 | 0.00 | 0.00 | 32 | 1053.6 |
| 20260504202944 | 30 | 343 | 0.0 | 4.8 | 0.00 | 0.00 | 0.00 | 32 | 1053.6 |
| 20260504202441 | 29 | 115 | 1.6 | 3.2 | 0.00 | 0.00 | 0.00 | 33 | 1053.8 |
| 20260504201938 | 28 | 143 | 0.0 | 3.2 | 0.00 | 0.00 | 0.00 | 33 | 1053.7 |
| 20260504201435 | 30 | 133 | 1.6 | 3.2 | 0.00 | 0.00 | 0.00 | 34 | 1054.1 |
| 20260504200932 | 30 | 116 | 1.6 | 3.2 | 0.00 | 0.00 | 0.00 | 31 | 1054.0 |
| 20260504200429 | 28 | 124 | 1.6 | 3.2 | 0.00 | 0.00 | 0.00 | 34 | 1054.1 |
| 20260504195926 | 28 | 120 | 3.2 | 3.2 | 0.00 | 0.00 | 0.00 | 36 | 1054.1 |
| 20260504195422 | 28 | 141 | 0.0 | 1.6 | 0.00 | 0.00 | 0.00 | 36 | 1054.3 |
| 20260504194918 | 28 | 123 | 3.2 | 4.8 | 0.00 | 0.00 | 0.00 | 35 | 1054.4 |
| 20260504194414 | 28 | 131 | 1.6 | 1.6 | 0.00 | 0.00 | 0.00 | 35 | 1054.4 |
| 20260504193910 | 28 | 236 | 4.8 | 4.8 | 0.00 | 0.00 | 0.00 | 34 | 1054.4 |
| 20260504193408 | 28 | 158 | 1.6 | 3.2 | 0.00 | 0.00 | 0.00 | 34 | 1054.6 |
| 20260504192907 | 27 | 128 | 0.0 | 4.8 | 0.00 | 0.00 | 0.00 | 34 | 1054.6 |
| 20260504192403 | 28 | 144 | 0.0 | 1.6 | 0.00 | 0.00 | 0.00 | 32 | 1054.6 |
| 20260504191902 | 28 | 150 | 0.0 | 0.0 | 0.00 | 0.00 | 0.00 | 33 | 1054.6 |
| 20260504191400 | 28 | 137 | 1.6 | 3.2 | 0.00 | 0.00 | 0.00 | 32 | 1054.8 |
| 20260504190855 | 28 | 184 | 4.8 | 6.4 | 0.00 | 0.00 | 0.00 | 32 | 1054.7 |
| 20260504190351 | 28 | 139 | 0.0 | 3.2 | 0.00 | 0.00 | 0.00 | 34 | 1054.7 |
| 20260504185848 | 28 | 162 | 3.2 | 3.2 | 0.00 | 0.00 | 0.00 | 34 | 1055.1 |
| 20260504185345 | 28 | 146 | 1.6 | 6.4 | 0.00 | 0.00 | 0.00 | 34 | 1054.9 |
| 20260504184841 | 27 | 100 | 1.6 | 1.6 | 0.00 | 0.00 | 0.00 | 34 | 1055.0 |
| 20260504184337 | 27 | 111 | 1.6 | 3.2 | 0.00 | 0.00 | 0.00 | 34 | 1055.1 |
| 20260504183833 | 27 | 166 | 1.6 | 4.8 | 0.00 | 0.00 | 0.00 | 35 | 1055.2 |
| 20260504183330 | 27 | 158 | 1.6 | 4.8 | 0.00 | 0.00 | 0.00 | 37 | 1055.2 |
| 20260504182828 | 26 | 152 | 1.6 | 4.8 | 0.00 | 0.00 | 0.00 | 38 | 1055.3 |
| 20260504182325 | 27 | 134 | 0.0 | 3.2 | 0.00 | 0.00 | 0.00 | 37 | 1055.3 |
| 20260504181822 | 26 | 124 | 3.2 | 4.8 | 0.00 | 0.00 | 0.00 | 38 | 1055.3 |
| 20260504181319 | 26 | 83 | 4.8 | 6.4 | 0.00 | 0.00 | 0.00 | 39 | 1055.3 |
| 20260504180818 | 26 | 158 | 1.6 | 9.7 | 0.00 | 0.00 | 0.00 | 40 | 1055.4 |
| 20260504180316 | 26 | 91 | 1.6 | 3.2 | 0.00 | 0.00 | 0.00 | 42 | 1055.3 |
| 20260504175814 | 26 | 179 | 4.8 | 6.4 | 0.00 | 0.00 | 0.00 | 40 | 1055.3 |
| 20260504175311 | 26 | 208 | 3.2 | 6.4 | 0.00 | 0.00 | 0.00 | 40 | 1055.2 |
| 20260504174809 | 26 | 156 | 6.4 | 11.3 | 0.00 | 0.00 | 0.00 | 38 | 1055.4 |
| 20260504174306 | 26 | 111 | 4.8 | 9.7 | 0.00 | 0.00 | 0.00 | 39 | 1055.5 |
| 20260504173802 | 26 | 129 | 6.4 | 9.7 | 0.00 | 0.00 | 0.00 | 41 | 1055.5 |
| 20260504173259 | 26 | 128 | 0.0 | 4.8 | 0.00 | 0.00 | 0.00 | 39 | 1055.4 |
| 20260504172756 | 26 | 187 | 3.2 | 6.4 | 0.00 | 0.00 | 0.00 | 40 | 1055.6 |
| 20260504172253 | 26 | 147 | 1.6 | 3.2 | 0.00 | 0.00 | 0.00 | 41 | 1055.3 |
| 20260504171749 | 25 | 121 | 1.6 | 4.8 | 0.00 | 0.00 | 0.00 | 42 | 1055.4 |
| 20260504171246 | 25 | 149 | 1.6 | 4.8 | 0.00 | 0.00 | 0.00 | 41 | 1055.6 |
| 20260504170743 | 25 | 173 | 1.6 | 6.4 | 0.00 | 0.00 | 0.00 | 42 | 1055.6 |
| 20260504170240 | 25 | 137 | 3.2 | 9.7 | 0.00 | 0.00 | 0.00 | 43 | 1055.6 |
| 20260504160159 | 22 | 280 | 3.2 | 9.7 | 0.00 | 0.00 | 0.00 | 50 | 1055.6 |
| 20260504151126 | 21 | 133 | 1.6 | 6.4 | 0.00 | 0.00 | 0.00 | 51 | 1055.4 |
| 20260504150624 | 21 | 163 | 3.2 | 12.9 | 0.00 | 0.00 | 0.00 | 51 | 1055.2 |
| 20260504150121 | 21 | 134 | 0.0 | 1.6 | 0.00 | 0.00 | 0.00 | 54 | 1055.4 |
| 20260504141049 | 20 | 187 | 3.2 | 3.2 | 0.00 | 0.00 | 0.00 | 54 | 1055.7 |
| 20260504140546 | 20 | 115 | 1.6 | 9.7 | 0.00 | 0.00 | 0.00 | 53 | 1055.5 |
| 20260504130510 | 17 | 146 | 1.6 | 4.8 | 0.00 | 0.00 | 0.00 | 59 | 1055.6 |
| 20260504110357 | 16 | 178 | 3.2 | 6.4 | 0.00 | 0.00 | 0.00 | 56 | 1055.4 |
| 20260504100315 | 17 | 143 | 3.2 | 11.3 | 0.00 | 0.00 | 0.00 | 53 | 1055.9 |
| 20260504081708 | 18 | 126 | 1.6 | 3.2 | 0.00 | 0.00 | 0.00 | 49 | 1056.5 |
| 20260504081204 | 18 | 161 | 3.2 | 9.7 | 0.00 | 0.00 | 0.00 | 48 | 1056.6 |
| 20260504080701 | 19 | 183 | 6.4 | 9.7 | 0.00 | 0.00 | 0.00 | 48 | 1056.7 |
| 20260504080157 | 19 | 176 | 4.8 | 9.7 | 0.00 | 0.00 | 0.00 | 47 | 1056.5 |
| 20260504070125 | 20 | 192 | 6.4 | 11.3 | 0.00 | 0.00 | 0.00 | 45 | 1057.3 |